Temp
17 18 18 20 20 21 21 21 21 22 23 23 23 24 24 26 28 27 33 33 29 26 25 28 29 31 31 33 33 32 35 35 34 34 34 34 32 34 34 33 32 32 33 30 27
17 18 18 19 20 21 21 21 22 22 23 23 23 24 24 25 25 31 31 31 30 28 29 31 33 33 35 35 33 34 35 33 35 36 34 34 34 33 33 33 31 31 31 28 28
18 18 18 19 20 21 21 22 22 23 23 24 24 24 25 25 30 35 30 29 30 28 31 32 33 34 36 36 35 35 35 35 36 36 36 34 34 35 34 33 32 30 30 30 29
18 19 18 20 20 21 22 22 23 23 23 24 24 24 25 23 34 31 30 30 29 29 31 33 35 36 36 36 36 35 35 35 36 35 35 34 35 34 35 34 34 32 31 31 30
18 18 18 19 20 21 22 23 24 24 24 25 24 24 24 31 34 27 28 27 26 30 33 35 35 36 36 37 36 35 36 36 36 36 36 35 34 34 34 34 34 33 32 31 32
17 18 19 19 20 21 22 23 24 25 25 25 25 24 26 33 29 27 27 26 30 32 34 35 36 36 36 37 36 37 36 36 36 36 36 35 34 34 33 34 33 32 32 32 32
16 18 18 19 20 21 22 23 25 25 25 25 25 24 29 33 28 28 28 29 30 32 35 34 34 36 37 37 37 37 36 36 36 36 35 35 33 34 33 33 32 32 33 32 33
16 18 18 19 20 21 22 24 24 25 25 25 24 23 32 28 28 28 29 30 29 31 31 33 33 36 36 38 38 36 37 36 36 35 34 34 34 33 33 33 33 33 33 32 32
16 18 19 19 20 22 23 22 23 24 24 24 24 28 33 27 30 31 31 34 33 32 31 32 34 37 37 37 38 38 37 36 36 35 35 34 34 34 33 33 33 33 33 33 32
16 17 19 19 20 22 23 21 22 23 22 21 24 29 31 33 33 32 32 32 35 35 34 35 36 37 37 37 36 36 36 37 37 36 35 35 35 34 34 34 34 33 34 33 33
16 18 19 19 20 23 23 22 28 28 28 32 32 31 32 32 31 32 32 33 35 35 36 36 36 36 38 38 37 36 37 37 38 36 35 36 35 35 34 34 35 34 34 34 34
17 17 19 20 21 23 23 29 25 24 28 31 30 30 30 30 33 34 33 34 35 35 36 35 35 38 37 37 37 37 37 37 37 35 35 36 35 36 35 34 35 34 34 34 34
17 17 18 20 21 22 24 25 22 22 28 31 31 31 32 31 33 35 35 36 35 35 36 36 38 38 36 37 36 38 37 36 36 36 35 36 37 35 35 35 35 35 35 35 35
16 17 18 20 21 21 26 22 22 22 31 32 32 32 31 32 33 35 35 36 35 35 36 36 38 36 36 36 37 37 37 37 36 36 37 36 36 37 36 34 34 35 35 36 35
16 16 18 17 18 24 23 22 22 24 33 33 32 31 32 33 35 34 35 35 35 35 36 36 36 35 35 37 37 37 36 36 36 38 38 36 37 38 35 35 35 35 36 36 36
16 16 17 15 16 21 21 22 24 30 32 33 33 33 32 34 35 34 34 35 36 35 35 36 36 36 37 38 37 37 36 37 37 38 37 36 37 38 38 38 37 36 36 36 36
16 18 17 14 25 19 21 26 30 31 32 32 32 33 33 34 34 35 34 34 35 33 34 36 35 37 36 37 37 36 37 36 36 37 36 36 36 38 39 39 38 37 36 36 36
18 18 17 16 18 18 24 30 30 30 31 32 32 33 33 34 35 35 35 35 36 36 36 35 36 37 37 36 37 37 38 37 35 36 37 35 36 39 39 38 38 38 37 37 36
18 18 19 20 18 18 28 30 30 30 30 31 33 33 33 34 34 34 35 36 36 36 35 35 35 37 36 38 37 37 36 39 37 38 37 38 39 40 39 38 38 37 37 36 37
16 22 23 19 19 24 30 26 29 29 30 31 32 32 33 34 34 34 35 35 36 36 37 36 34 36 36 36 36 37 39 37 37 34 35 37 37 38 39 38 38 38 37 37 36
19 27 23 20 21 29 30 29 29 30 29 30 31 32 32 33 34 35 35 34 35 35 36 36 36 36 36 36 37 36 36 37 38 38 36 36 38 39 38 37 37 38 38 38 37
23 28 23 22 29 28 29 28 21 30 30 30 30 31 32 32 33 34 35 35 34 35 34 36 36 35 36 37 37 38 38 38 37 36 37 37 38 39 37 37 36 36 37 38 37
25 26 24 24 29 29 28 28 28 29 29 30 30 30 31 31 32 33 34 34 34 34 34 35 35 35 36 37 36 36 37 38 39 39 37 37 38 38 36 35 34 35 36 36 36
24 27 27 27 27 28 27 28 28 29 29 29 29 31 30 31 33 32 34 34 34 34 26 32 36 36 36 36 37 36 36 37 38 38 38 38 39 39 36 34 34 34 34 35 36
23 24 22 27 27 27 27 27 27 28 29 29 29 29 29 30 32 32 33 34 34 26 32 35 35 35 36 35 36 37 37 37 37 38 37 37 37 38 35 34 33 34 35 35 36
23 23 23 24 24 25 21 26 27 27 27 28 28 28 29 30 29 30 30 33 33 33 34 35 34 34 34 34 35 35 37 37 37 36 37 37 37 36 35 35 34 34 33 34 35
18 19 21 18 25 25 26 25 26 25 27 27 27 27 29 28 27 28 30 31 32 30 33 34 34 34 34 34 34 34 35 36 37 37 37 36 37 36 35 34 33 33 33 33 33
Height
811 808 805 802 799 796 793 790 786 783 780 778 775 773 769 765 761 761 757 757 758 759 763 765 765 763 760 755 754 754 757 766 766 763 764 753 763 754 752 762 761 764 764 775 787
812 809 806 802 799 795 792 788 785 782 778 776 773 771 768 764 760 757 756 756 757 758 763 762 760 759 751 751 753 754 757 768 752 748 755 753 754 756 760 764 769 770 770 781 787
812 809 806 802 798 794 790 787 783 780 777 774 771 769 767 764 758 748 753 754 756 759 761 760 759 756 751 748 749 750 761 750 746 743 742 752 754 748 758 767 765 773 775 781 785
811 808 805 801 796 792 788 784 780 777 774 772 770 768 766 765 763 752 750 752 756 760 761 759 755 753 752 754 747 757 748 747 744 742 745 752 748 755 752 757 754 765 773 778 783
810 806 803 799 794 790 784 780 776 773 771 769 769 767 766 759 751 753 750 754 759 760 758 755 754 752 756 750 748 755 747 745 742 742 741 744 753 754 755 753 756 765 773 778 780
809 805 801 796 792 787 782 776 772 769 767 766 767 767 767 762 755 755 755 759 759 759 757 757 752 751 752 749 751 745 746 745 743 742 742 752 754 753 757 752 759 765 771 775 778
808 804 800 794 789 784 778 773 769 765 763 763 765 766 763 753 756 756 757 758 759 759 755 756 756 753 747 748 740 742 754 746 747 744 750 746 765 761 754 756 762 766 769 773 776
807 802 797 792 787 781 776 771 767 764 762 762 764 767 755 755 756 756 757 758 759 760 760 759 757 751 750 740 739 750 747 762 748 747 751 753 767 756 754 758 762 764 768 772 775
805 800 795 790 784 778 774 770 767 765 764 764 766 764 752 754 754 753 754 753 755 758 759 759 755 749 745 751 751 747 766 762 755 745 749 757 762 753 752 755 759 761 765 770 774
804 799 793 788 782 777 772 769 767 766 766 765 766 766 752 748 748 750 752 754 752 753 756 756 752 755 750 753 773 773 767 758 761 748 750 754 757 751 750 751 755 759 761 767 770
802 797 791 786 780 776 771 769 766 763 762 751 749 750 747 748 750 748 750 751 750 750 760 752 763 766 751 747 753 757 759 759 747 745 753 750 751 747 747 749 751 755 758 760 763
800 795 789 784 778 775 772 766 774 777 765 749 750 750 750 751 748 744 748 750 752 760 749 761 767 744 743 748 754 754 757 754 746 748 751 746 749 737 742 746 746 749 752 755 758
797 792 787 781 776 776 775 774 776 775 765 747 746 745 744 749 745 738 742 741 749 755 753 760 744 735 751 752 758 749 754 760 762 747 745 746 741 743 736 739 740 741 743 745 751
795 790 785 780 779 777 773 776 774 773 761 750 744 742 744 741 748 735 737 740 747 754 750 751 736 751 753 756 749 760 745 750 756 754 764 743 769 738 737 743 740 738 739 741 743
793 788 784 782 780 776 777 775 773 772 771 745 743 741 739 741 735 740 736 739 748 750 751 753 751 755 759 750 743 754 746 752 752 748 748 754 755 736 737 743 737 733 731 733 734
790 786 781 781 780 777 775 774 773 771 773 750 739 742 745 739 735 737 739 737 733 745 747 745 737 742 739 732 738 743 751 748 745 743 764 755 760 742 733 728 722 723 723 726 729
785 781 777 778 773 775 774 770 770 770 747 757 751 742 743 741 740 737 746 749 753 769 762 748 747 736 737 745 741 748 752 772 773 763 772 749 758 740 718 713 714 716 719 720 723
780 776 774 774 775 774 772 766 780 765 757 746 747 743 746 738 738 739 742 748 737 741 748 757 761 737 730 743 745 747 745 763 792 778 764 752 762 734 708 705 706 708 710 715 719
777 777 776 775 773 773 767 770 767 766 759 757 743 747 746 740 740 742 742 739 733 738 758 754 756 728 731 725 734 744 761 731 753 741 764 742 732 706 704 708 709 710 711 714 714
778 774 774 774 773 772 763 780 767 763 760 754 758 749 750 744 746 743 741 730 733 728 727 738 764 732 732 731 731 736 722 757 749 786 788 751 746 740 721 715 712 711 711 710 711
777 765 775 774 774 763 765 769 767 756 760 762 758 756 750 748 742 738 740 735 730 733 729 733 743 743 737 741 736 744 745 741 736 742 768 770 744 710 717 717 715 707 705 705 710
774 764 774 773 766 764 765 769 777 759 756 758 757 755 753 749 745 741 739 729 727 728 743 730 733 749 738 719 720 719 727 726 752 760 745 749 745 705 714 713 712 713 706 705 706
772 770 773 771 767 767 767 765 765 761 759 758 758 754 749 753 757 743 737 727 727 729 734 732 743 752 746 731 729 735 727 725 721 721 743 754 737 708 714 718 718 717 711 709 710
776 769 769 767 769 767 771 770 768 759 761 759 759 750 754 751 741 748 740 729 728 729 743 733 726 735 743 733 717 734 730 725 726 738 736 735 723 710 721 726 721 717 714 711 708
780 782 784 773 772 772 771 773 771 768 760 758 761 759 759 759 748 750 739 733 728 744 733 728 737 733 727 728 724 722 721 724 730 719 735 730 729 714 725 725 722 717 711 709 705
785 786 783 781 781 778 784 774 774 769 768 764 767 761 756 757 761 759 752 741 739 732 730 720 738 734 737 730 726 730 719 720 722 726 726 726 729 712 716 715 719 718 716 713 708
799 797 792 793 778 779 775 778 776 776 766 766 769 766 757 759 759 754 748 742 739 747 737 734 730 738 743 733 733 743 726 721 720 717 719 733 718 715 719 720 722 720 716 716 712
Wind_Speed
18 19 19 19 19 19 19 20 19 20 20 20 19 19 20 21 21 6 9 2 7 18 16 12 8 6 7 3 3 2 4 8 8 1 5 10 5 5 5 13 3 3 9 23 25
18 19 20 20 20 20 21 20 20 20 20 19 18 18 18 21 15 10 6 7 7 18 16 11 7 4 3 1 2 4 3 4 3 4 4 9 8 10 7 12 7 10 17 27 27
18 19 21 21 20 21 22 22 22 20 19 18 18 17 16 17 7 4 3 10 12 19 9 8 4 6 3 1 2 1 3 3 2 2 6 7 6 6 8 10 10 15 22 23 24
19 20 22 22 22 23 24 24 23 21 19 17 15 14 14 4 1 4 6 13 16 15 11 7 5 4 3 5 2 3 2 4 2 4 7 7 9 7 7 6 12 17 23 21 19
20 21 23 23 23 25 25 27 24 21 19 15 12 10 6 6 2 7 11 18 19 15 11 6 5 5 8 7 2 4 5 3 3 3 5 7 8 4 9 4 16 21 22 21 19
20 22 25 25 25 26 29 28 21 19 17 13 8 5 5 7 4 2 12 18 12 13 7 6 5 8 7 8 6 8 5 3 2 2 4 6 5 5 5 11 19 23 22 20 19
22 23 25 26 26 27 31 22 23 16 12 7 5 3 7 5 2 6 13 14 8 9 4 4 7 8 10 7 7 6 5 3 1 3 3 4 6 4 12 14 18 20 20 19 18
23 25 27 27 26 28 24 23 12 10 5 3 6 3 5 0 2 9 11 9 8 7 4 5 6 9 6 9 5 3 8 4 6 5 3 6 8 7 13 15 17 19 19 18 18
24 26 27 28 25 28 21 10 7 7 6 7 2 6 2 2 5 11 10 4 7 7 4 6 6 6 7 9 5 5 7 8 4 2 4 9 2 7 14 15 15 16 18 18 17
25 27 27 28 25 23 18 4 4 2 2 1 2 6 6 2 5 6 12 11 6 7 7 7 6 9 7 9 6 9 11 10 10 3 7 6 7 9 15 15 15 15 16 18 18
26 27 28 28 26 15 14 5 5 5 8 8 3 4 3 2 4 10 10 11 11 8 12 9 10 12 11 3 8 10 12 12 11 5 6 6 7 7 15 16 15 15 16 18 19
26 27 28 26 23 9 5 3 5 5 8 7 11 13 13 5 5 10 11 11 12 14 12 8 15 14 5 7 11 12 13 9 3 3 6 5 11 10 14 18 17 17 17 18 18
26 27 28 28 13 5 3 5 4 4 6 4 4 5 3 11 7 13 16 18 13 15 15 18 7 4 9 13 12 13 8 11 13 5 5 10 6 1 7 16 17 17 16 18 18
26 27 28 28 1 8 1 1 10 3 5 7 5 4 6 5 8 8 17 10 9 14 15 14 18 9 10 10 12 14 5 8 8 7 6 5 7 2 4 11 17 19 19 18 19
26 26 27 20 12 4 1 8 5 4 5 4 6 4 4 8 5 10 13 10 14 12 8 11 8 13 20 19 5 10 5 7 8 10 9 8 7 5 5 8 13 19 20 20 20
26 28 26 6 5 6 6 9 4 6 2 4 3 2 8 11 6 9 11 7 5 7 11 16 3 7 13 16 10 4 10 11 8 9 10 8 6 4 4 5 6 15 19 21 21
29 24 17 5 1 5 8 5 5 6 2 3 1 1 5 10 8 9 15 15 11 11 13 14 15 13 7 9 11 10 13 10 7 7 4 4 8 7 7 5 5 11 16 18 19
25 14 5 5 7 8 6 6 6 3 3 1 3 4 5 11 6 7 12 15 16 12 8 9 11 19 14 17 13 13 16 11 7 7 6 5 4 6 7 4 5 6 8 14 18
15 1 1 4 6 4 6 7 4 2 4 7 4 7 7 9 4 11 14 12 13 15 11 5 8 3 8 16 17 13 10 13 12 9 8 4 5 11 3 2 7 8 8 11 16
6 2 4 4 2 6 6 3 1 2 6 5 3 2 4 6 8 7 9 3 9 11 16 5 9 3 6 5 8 15 7 9 11 12 11 3 5 2 10 6 4 5 6 9 12
3 3 3 4 3 5 3 4 1 1 5 5 3 3 1 1 4 5 10 7 4 5 13 15 10 5 7 12 13 11 13 11 12 7 10 10 1 9 7 4 4 2 3 7 10
4 3 1 4 4 1 2 2 1 2 1 3 5 5 4 4 4 4 8 1 2 4 6 18 8 12 13 7 3 5 12 18 11 15 8 9 5 11 8 8 4 1 1 2 3
2 2 0 4 2 3 4 1 2 3 3 2 3 2 4 5 3 3 2 4 1 2 4 8 10 10 12 10 6 10 14 14 12 10 9 10 4 10 9 8 8 6 4 5 7
3 3 3 1 1 3 1 1 0 1 1 4 5 5 7 8 8 3 5 4 2 3 4 5 13 12 11 9 7 19 10 12 15 12 13 11 12 4 10 9 9 9 7 8 8
3 3 4 1 3 2 4 1 3 1 1 2 5 6 6 5 6 7 8 6 6 5 3 5 11 4 11 9 8 11 15 15 15 15 6 6 4 8 9 11 10 9 9 9 9
4 3 1 1 1 4 3 2 3 4 3 3 5 8 5 2 6 6 7 5 4 4 4 5 8 5 8 5 9 11 11 14 12 4 5 4 8 6 8 9 8 9 9 8 10
5 2 4 3 2 4 1 1 1 6 2 2 9 10 5 5 12 14 12 14 10 6 7 6 7 7 10 3 5 11 13 13 12 5 6 7 9 5 6 7 9 10 11 11 10
Wind_Direction
9 5 360 356 351 346 340 338 334 331 330 331 330 329 327 324 321 295 265 247 179 156 152 165 201 227 253 276 247 244 247 75 82 70 116 141 139 139 96 142 107 93 148 140 155
4 359 357 352 346 344 338 334 330 327 325 325 325 327 328 328 316 271 259 190 196 166 167 185 212 241 245 294 159 281 349 62 356 60 129 165 153 153 147 162 122 117 114 144 155
357 356 352 347 344 340 336 331 327 324 318 318 319 324 329 329 277 97 356 193 185 165 191 220 260 260 287 291 71 32 3 9 93 134 147 174 168 164 149 175 156 151 146 155 162
351 349 346 345 342 337 333 330 323 316 310 310 312 319 325 304 317 18 311 173 169 170 180 208 242 274 315 21 43 294 321 295 325 158 172 172 155 172 175 71 145 154 157 159 169
345 344 342 340 339 336 332 327 319 311 305 302 304 310 322 242 301 360 145 161 164 182 200 230 273 328 352 349 307 296 351 294 268 260 208 145 173 152 180 166 140 153 161 168 174
342 340 339 339 338 335 332 326 318 312 302 292 283 285 273 247 5 113 149 161 179 189 204 250 331 337 285 312 326 351 350 337 319 215 167 185 154 200 130 145 150 160 171 173 177
345 340 338 337 337 334 332 326 319 313 304 285 219 193 258 286 27 162 162 179 189 206 222 262 301 293 338 312 350 320 237 189 57 132 134 190 177 205 142 155 159 170 176 177 181
345 341 340 339 336 333 333 328 338 337 325 137 159 206 269 256 164 175 175 185 201 210 246 302 260 278 275 311 248 250 224 11 120 196 135 213 103 161 162 165 170 173 180 181 184
345 342 341 340 337 333 335 336 3 27 73 113 160 250 206 156 210 195 190 200 191 208 234 258 271 271 264 272 231 199 1 15 63 235 161 209 359 162 178 178 176 177 179 189 190
345 343 341 341 337 331 335 305 320 352 47 168 231 245 184 171 154 184 211 226 226 174 194 219 229 253 238 257 341 336 332 341 357 84 233 230 256 170 188 195 183 179 182 186 196
343 340 341 340 338 331 341 291 230 183 214 275 15 314 135 316 209 204 186 192 215 220 219 205 232 229 241 323 316 305 309 320 4 44 279 274 258 209 193 202 196 185 188 190 195
340 338 337 339 336 342 351 355 52 343 296 238 256 263 266 277 217 196 179 201 198 216 208 197 234 246 266 275 278 292 297 341 63 51 273 310 280 224 206 207 206 199 192 193 195
338 336 335 339 336 13 352 79 359 313 259 168 212 262 214 198 224 187 197 210 215 222 214 237 239 233 230 256 266 270 318 343 335 320 219 300 209 84 202 210 207 207 210 197 190
335 335 335 338 316 340 182 17 327 217 264 129 170 137 171 208 215 205 206 203 216 237 229 252 251 218 232 242 262 267 27 324 327 291 360 343 339 63 175 203 211 212 207 208 200
332 331 330 332 301 278 47 327 315 222 232 103 116 113 162 218 102 176 185 207 230 217 212 231 220 225 241 245 288 289 342 324 302 286 289 123 284 96 161 227 214 212 210 209 204
329 329 323 333 262 259 313 313 216 230 176 133 126 142 185 201 173 142 177 225 278 231 225 265 130 252 250 240 223 309 261 248 254 268 275 71 322 287 39 326 186 201 208 204 206
327 323 304 260 15 312 310 226 229 256 134 99 6 281 251 185 182 187 187 198 206 213 226 217 234 224 240 198 197 230 251 263 250 236 317 54 290 302 314 293 243 190 196 204 203
327 326 310 231 280 294 273 223 249 49 12 6 305 262 232 177 207 176 188 215 220 252 282 225 216 211 207 234 225 217 249 268 284 296 338 147 277 336 344 311 206 177 182 201 206
341 349 235 326 267 224 242 223 22 358 356 336 259 226 151 174 255 216 229 238 213 216 238 218 240 84 256 216 222 214 236 264 288 249 264 288 328 270 125 272 203 209 209 209 205
330 220 62 40 93 230 245 28 199 344 330 299 301 316 203 161 210 209 179 208 220 218 238 260 272 189 136 189 229 255 279 219 229 268 271 345 290 290 360 18 175 220 217 202 203
231 202 79 339 276 227 261 57 274 10 315 315 332 292 295 244 271 212 178 121 189 174 236 237 244 154 179 207 206 196 222 236 293 290 292 281 12 66 31 33 337 171 172 174 173
291 181 86 321 213 276 150 14 8 327 183 285 289 293 288 325 265 237 195 295 107 178 196 221 248 236 229 137 305 290 237 234 228 243 245 289 324 74 52 33 18 295 299 151 188
4 50 76 301 224 147 135 221 301 322 331 300 284 339 313 295 278 253 181 101 85 252 194 167 231 240 227 193 197 234 224 235 261 276 256 251 166 96 69 35 18 350 309 251 229
278 181 145 168 349 310 295 96 256 120 171 332 297 292 307 260 227 268 226 161 311 327 353 257 257 246 262 253 241 207 218 223 227 223 239 225 277 69 37 9 349 337 315 279 254
345 65 359 134 137 305 280 322 294 333 222 311 173 352 317 271 245 226 243 252 184 146 230 256 260 274 270 292 273 257 222 202 222 253 253 59 283 15 5 350 344 321 318 295 269
353 333 206 96 295 262 168 130 293 339 308 114 349 340 328 273 350 326 341 250 347 299 253 230 271 261 246 244 243 231 224 200 214 226 269 288 290 69 349 352 3 5 348 332 306
19 352 290 126 231 257 63 23 357 336 181 305 346 318 277 13 318 299 284 281 284 293 303 279 299 237 239 196 223 232 202 205 195 215 269 252 41 359 354 18 14 356 2 355 341